Location: Unspecified
(0.0000°N, 0.0000°E)
Time: 12:19:17
(UTC+01:00)

GPS 2-15 Rocket1 - Visible Passes

Search period start: 27 February 2017 00:00
Search period end: 09 March 2017 00:00
Orbit: 624 x 676 km, 19.8° (Epoch: 27 February)

Date Brightness Start Highest point End Pass type
(mag) Time Alt. Az. Time Alt. Az. Time Alt. Az.
27 Feb 5.6 04:45:33 19° E 04:45:33 19° E 04:47:01 10° E visible
27 Feb 3.7 06:23:12 17° W 06:26:36 46° SSW 06:31:15 10° SE visible
27 Feb 5.5 20:22:31 10° NW 20:24:38 13° NNW 20:26:43 10° NNE visible
28 Feb 4.3 05:10:26 40° ESE 05:10:26 40° ESE 05:13:33 10° ESE visible
01 Mar 3.8 05:35:18 41° SSW 05:35:18 41° SSW 05:39:43 10° SE visible
02 Mar 4.6 06:00:10 20° SW 06:01:41 23° SSW 06:05:30 10° SE visible
03 Mar 5.8 04:47:21 14° SE 04:47:21 14° SE 04:48:10 10° SE visible
03 Mar 5.3 06:25:47 10° SW 06:28:19 14° SSW 06:30:52 10° SSE visible
04 Mar 5.3 05:12:10 17° SSE 05:12:10 17° SSE 05:13:53 10° SSE visible
05 Mar 5.4 05:36:58 13° SSW 05:36:58 13° SSW 05:39:08 10° SSE visible
